EXPRESS-AM33

Last updated on Oct. 31, 2020, 5:53 a.m. UTC

1 32478U 08003A   20304.88464571 -.00000275  00000-0  00000-0 0  9992
2 32478   0.0082 291.4751 0000954 333.8555 189.3163  1.00271752 47002
UTC
Height (km)
Latitude
Longitude
Inclination
Orbital Period
UTC large
Height (km)
Speed (km/s)
/
Latitude / Longitude
Inclination (degrees)
Orbital Period (minutes)
Azimuth
Elevation
Range (km)
Doppler Factor
iOS Compass Heading
iOS Angle

Next 30 passes for location: Hong Kong

Rise time Rise Azimuth (degrees) Set time Set Azimuth (degrees) Duration Max altitude (degrees)

No matching passes for this satellites